Barcelona, Spain

12:38 AM CET on February 25, 2018 (GMT +0100)
El Prat

Weather History for LEBL - February, 2018

Change the Weather History Date:

Saturday, February 3, 2018

  Actual Average Record
Temperature  
Mean Temperature 46 °F -  
Max Temperature 55 °F 55 °F 64 °F (2000)
Min Temperature 37 °F 41 °F 32 °F (2012)
Degree Days  
Heating Degree Days 19    
Moisture  
Dew Point 28 °F    
Average Humidity 45    
Maximum Humidity 66    
Minimum Humidity 21    
Precipitation  
Precipitation 0.00 in 0.05 in - ()
Sea Level Pressure  
Sea Level Pressure 29.84 in    
Wind  
Wind Speed 10 mph ()    
Max Wind Speed 21 mph    
Max Gust Speed -    
Visibility 11.7 miles    
Events      
Averages and records for this station are not official NWS values.
T = Trace of Precipitation, MM = Missing Value Source: Averaged Metar Reports

Daily Weather History Graph

Daily Weather History Graph

Search for Another Location

Airport or City:

Trip Planner

Search our weather history database for the weather conditions in past years. The results will help you decide how hot, cold, wet, or windy it might be!

Date:

Astronomy

Feb. 03, 2018 Rise Set
Actual Time 8:01 AM CET 6:10 PM CET
Civil Twilight 7:31 AM CET 6:39 PM CET
Nautical Twilight 6:59 AM CET 7:12 PM CET
Astronomical Twilight 6:26 AM CET 7:44 PM CET
Moon 9:47 PM CET (2/3) 9:54 AM CET (2/3)
Length of Visible Light 11h 07m
Length of Day
10h 09m
Waning Gibbous, 89% of the Moon is Illuminated
Feb 3
Waning Gibbous
Feb 7
Last Quarter
Feb 15
New
Feb 23
First Quarter
Mar 2
Full

Hourly Weather History & Observations

Time (CET) Temp. Windchill Dew Point Humidity Pressure Visibility Wind Dir Wind Speed Gust Speed Precip Events Conditions
12:00 AM 41 °F - 21 °F 32% 29.81 in 19 mi North 8.1 mph - -  
12:00 AM 41.0 °F 34.3 °F 21.2 °F 45% 29.80 in - NW 11.5 mph - N/A   Clear
12:30 AM 39.2 °F 32.0 °F 21.2 °F 49% 29.80 in - NW 11.5 mph - N/A   Clear
1:00 AM 39.2 °F 31.6 °F 21.2 °F 49% 29.80 in - NW 12.7 mph - N/A   Clear
1:30 AM 41.0 °F 36.4 °F 19.4 °F 42% 29.80 in - NNW 6.9 mph - N/A   Clear
2:00 AM 41 °F - 20 °F 29% 29.82 in 19 mi North 8.1 mph - -  
2:00 AM 41.0 °F 34.3 °F 21.2 °F 45% 29.80 in - North 11.5 mph - N/A   Clear
2:30 AM 41.0 °F 33.5 °F 19.4 °F 42% 29.80 in - North 13.8 mph - N/A   Clear
3:00 AM 41 °F - 20 °F 29% 29.83 in 19 mi North 4.6 mph - -  
3:00 AM 41.0 °F 34.3 °F 19.4 °F 42% 29.80 in - North 11.5 mph - N/A   Clear
3:30 AM 41.0 °F 35.8 °F 19.4 °F 42% 29.80 in - North 8.1 mph - N/A   Clear
4:00 AM 42 °F - 20 °F 29% 29.83 in 19 mi North 9.2 mph - -  
4:00 AM 41.0 °F 33.5 °F 21.2 °F 45% 29.80 in - NW 13.8 mph - N/A   Clear
4:30 AM 41.0 °F 34.7 °F 21.2 °F 45% 29.80 in - NNW 10.4 mph - N/A   Clear
5:00 AM 42 °F - 22 °F 31% 29.83 in 19 mi North 10.4 mph - -  
5:00 AM 41.0 °F 32.5 °F 21.2 °F 45% 29.83 in - NW 17.3 mph - N/A   Clear
5:30 AM 41.0 °F 32.8 °F 23.0 °F 49% 29.83 in - NW 16.1 mph - N/A   Clear
6:00 AM 42 °F - 22 °F 31% 29.83 in 19 mi North 13.8 mph - -  
6:00 AM 41.0 °F 32.8 °F 21.2 °F 45% 29.83 in - NW 16.1 mph - N/A   Clear
6:30 AM 41.0 °F 33.1 °F 23.0 °F 49% 29.83 in - NNW 15.0 mph - N/A   Clear
7:00 AM 40 °F - 24 °F 40% 29.86 in 19 mi North 12.7 mph - -   Scattered Clouds
7:00 AM 39.2 °F 31.6 °F 23.0 °F 52% 29.83 in 6.2 mi NNW 12.7 mph - N/A   Partly Cloudy
7:30 AM 39.2 °F 32.0 °F 24.8 °F 56% 29.86 in 6.2 mi NNW 11.5 mph - N/A   Partly Cloudy
8:00 AM 39 °F - 24 °F 42% 29.88 in 19 mi North 10.4 mph - -  
8:00 AM 39.2 °F 31.2 °F 23.0 °F 52% 29.86 in 6.2 mi NW 13.8 mph - N/A   Partly Cloudy
8:30 AM 37.4 °F 28.2 °F 24.8 °F 60% 29.89 in 6.2 mi NW 16.1 mph - N/A   Partly Cloudy
9:00 AM 40 °F - 25 °F 42% 29.90 in 19 mi North 9.2 mph - -  
9:00 AM 39.2 °F 32.0 °F 24.8 °F 56% 29.89 in 6.2 mi NNW 11.5 mph - N/A   Partly Cloudy
9:30 AM 41.0 °F 33.5 °F 24.8 °F 53% 29.89 in 6.2 mi NW 13.8 mph - N/A   Partly Cloudy
10:00 AM 44 °F - 27 °F 38% 29.92 in 31 mi North 10.4 mph - -   Scattered Clouds
10:00 AM 42.8 °F 35.8 °F 26.6 °F 53% 29.92 in 6.2 mi NNW 13.8 mph - N/A   Partly Cloudy
10:30 AM 44.6 °F 39.2 °F 28.4 °F 53% 29.92 in - NW 10.4 mph - N/A   Clear
11:00 AM 49 °F - 28 °F 32% 29.92 in 19 mi North 6.9 mph - -  
11:00 AM 48.2 °F - 28.4 °F 46% 29.92 in 6.2 mi NW 10.4 mph - N/A   Partly Cloudy
11:30 AM 50.0 °F - 24.8 °F 37% 29.89 in - NW 9.2 mph - N/A   Clear
12:00 PM 54 °F - 25 °F 21% 29.90 in 19 mi West 3.5 mph - -  
12:00 PM 53.6 °F - 26.6 °F 35% 29.89 in - NNW 8.1 mph - N/A   Clear
12:30 PM 53.6 °F - 24.8 °F 33% 29.86 in - NNW 12.7 mph - N/A   Clear
1:00 PM 55 °F - 26 °F 21% 29.88 in 31 mi NW 15.0 mph - -   Scattered Clouds
1:00 PM 53.6 °F - 26.6 °F 35% 29.86 in - NW 13.8 mph - N/A   Clear
1:30 PM 51.8 °F - 28.4 °F 41% 29.86 in - NW 11.5 mph - N/A   Clear
2:00 PM 53 °F - 31 °F 31% 29.86 in 19 mi NW 20.7 mph - -  
2:00 PM 51.8 °F - 32.0 °F 47% 29.83 in 6.2 mi WNW 8.1 mph - N/A   Partly Cloudy
2:30 PM 51.8 °F - 32.0 °F 47% 29.83 in 6.2 mi WNW 17.3 mph - N/A   Partly Cloudy
3:00 PM 53 °F - 32 °F 33% 29.84 in 19 mi NW 18.4 mph - -  
3:00 PM 51.8 °F - 32.0 °F 47% 29.83 in 6.2 mi NW 18.4 mph - N/A   Partly Cloudy
3:30 PM 51.8 °F - 33.8 °F 50% 29.83 in 6.2 mi NW 16.1 mph - N/A   Partly Cloudy
4:00 PM 53 °F - 33 °F 35% 29.83 in 19 mi WNW 12.7 mph - -   Scattered Clouds
4:00 PM 51.8 °F - 33.8 °F 50% 29.83 in 6.2 mi WNW 17.3 mph - N/A   Partly Cloudy
4:30 PM 53.6 °F - 33.8 °F 47% 29.83 in 6.2 mi WNW 10.4 mph - N/A   Partly Cloudy
5:00 PM 55 °F - 33 °F 32% 29.83 in 19 mi WNW 11.5 mph - -  
5:00 PM 53.6 °F - 33.8 °F 47% 29.83 in 6.2 mi West 11.5 mph - N/A   Partly Cloudy
5:30 PM 53.6 °F - 33.8 °F 47% 29.80 in 6.2 mi West 10.4 mph - N/A   Partly Cloudy
6:00 PM 53 °F - 33 °F 35% 29.83 in 19 mi WNW 11.5 mph - -  
6:00 PM 51.8 °F - 33.8 °F 50% 29.83 in 6.2 mi West 15.0 mph - N/A   Partly Cloudy
6:30 PM 50.0 °F - 33.8 °F 54% 29.83 in 6.2 mi West 11.5 mph - N/A   Partly Cloudy
7:00 PM 50 °F - 34 °F 41% 29.84 in 19 mi West 10.4 mph - -   Scattered Clouds
7:00 PM 50.0 °F - 33.8 °F 54% 29.83 in 6.2 mi West 12.7 mph - N/A   Partly Cloudy
7:30 PM 50.0 °F - 33.8 °F 54% 29.83 in 6.2 mi WNW 10.4 mph - N/A   Partly Cloudy
8:00 PM 49 °F - 34 °F 45% 29.85 in 19 mi West 8.1 mph - -  
8:00 PM 50.0 °F - 33.8 °F 54% 29.83 in 6.2 mi West 6.9 mph - N/A   Partly Cloudy
8:30 PM 50.0 °F - 33.8 °F 54% 29.83 in 6.2 mi WSW 8.1 mph - N/A   Partly Cloudy
9:00 PM 50 °F - 35 °F 43% 29.84 in 19 mi WNW 5.8 mph - -  
9:00 PM 50.0 °F - 33.8 °F 54% 29.83 in 6.2 mi West 8.1 mph - N/A   Partly Cloudy
9:30 PM 50.0 °F - 35.6 °F 58% 29.83 in 6.2 mi Variable 1.2 mph - N/A   Partly Cloudy
10:00 PM 49 °F - 36 °F 49% 29.84 in 19 mi WSW 3.5 mph - -   Scattered Clouds
10:00 PM 48.2 °F - 35.6 °F 62% 29.83 in 6.2 mi WSW 3.5 mph - N/A   Partly Cloudy
10:30 PM 48.2 °F - 35.6 °F 62% 29.83 in 6.2 mi West 2.3 mph - N/A   Partly Cloudy
11:00 PM 46 °F - 36 °F 59% 29.84 in 19 mi NW 5.8 mph - -  
11:00 PM 46.4 °F 42.9 °F 35.6 °F 66% 29.83 in 6.2 mi WNW 6.9 mph - N/A   Partly Cloudy
11:30 PM 46.4 °F 44.3 °F 35.6 °F 66% 29.83 in 6.2 mi West 4.6 mph - N/A   Partly Cloudy